{"data":{"norad_id":62699,"epoch":"2026-09-19T03:46:39.664128Z","epoch_age_seconds":130669,"freshness":"FRESH","line1":"1 62699U 25009CU  26262.15740352  .00003178  00000+0  23694-3 0  9998","line2":"2 62699  97.6828 342.8172 0003473 132.4597 227.6922 15.03603901 91670","mean_motion":15.03603901,"eccentricity":0.0003473,"inclination_deg":97.6828,"raan_deg":342.8172,"arg_perigee_deg":132.4597,"mean_anomaly_deg":227.6922,"bstar":0.00023694,"rev_number":9167,"period_min":95.769903166805,"perigee_km":553.38632159053,"apogee_km":558.20263039376,"semimajor_km":6933.9314759921,"source":"CELESTRAK","updated_at":"2026-09-20T09:00:34.873014Z"}}